Weather History for LIMC - October, 2013

Change the Weather History Date:

Thursday, October 3, 2013

  Actual Average Record
Temperature  
Mean Temperature 60 °F -  
Max Temperature 62 °F 64 °F 80 °F (2011)
Min Temperature 57 °F 43 °F 41 °F (1996)
Degree Days  
Heating Degree Days 6    
Growing Degree Days 10 (Base 50)    
Moisture  
Dew Point 49 °F    
Average Humidity 69    
Maximum Humidity 82    
Minimum Humidity 59    
Precipitation  
Precipitation 0.00 in 0.14 in - ()
Sea Level Pressure  
Sea Level Pressure 30.26 in    
Wind  
Wind Speed 5 mph ()    
Max Wind Speed 8 mph    
Max Gust Speed 20 mph    
Visibility 6.2 miles    
Events      
Averages and records for this station are not official NWS values.
T = Trace of Precipitation, MM = Missing Value Source: Averaged Metar Reports

Daily Weather History Graph

Daily Weather History Graph

Search for Another Location

Airport or City:

Trip Planner

Search our weather history database for the weather conditions in past years. The results will help you decide how hot, cold, wet, or windy it might be!

Date:

Astronomy

Oct. 03, 2013 Rise Set
Actual Time 7:25 AM CEST 7:01 PM CEST
Civil Twilight 6:56 AM CEST 7:31 PM CEST
Nautical Twilight 6:21 AM CEST 8:05 PM CEST
Astronomical Twilight 5:46 AM CEST 8:40 PM CEST
Moon 5:39 AM CEST (10/3) 6:03 PM CEST (10/3)
Length of Visible Light 12h 34m
Length of Day
11h 35m
Waning Crescent, 3% of the Moon is Illuminated
Oct 3
Waning Crescent
Oct 5
New
Oct 12
First Quarter
Oct 19
Full
Oct 27
Last Quarter

Hourly Weather History & Observations

Time (CEST) Temp. Dew Point Humidity Pressure Visibility Wind Dir Wind Speed Gust Speed Precip Events Conditions
12:20 AM 62.6 °F 53.6 °F 72% 30.18 in 6.2 mi East 3.5 mph - N/A   Mostly Cloudy
12:50 AM 62.6 °F 53.6 °F 72% 30.18 in 6.2 mi East 5.8 mph - N/A   Mostly Cloudy
1:20 AM 60.8 °F 53.6 °F 77% 30.18 in 6.2 mi East 5.8 mph - N/A   Mostly Cloudy
1:50 AM 60.8 °F 51.8 °F 72% 30.18 in 6.2 mi ENE 8.1 mph - N/A   Mostly Cloudy
2:20 AM 60.8 °F 50.0 °F 68% 30.21 in 6.2 mi East 8.1 mph - N/A   Mostly Cloudy
2:50 AM 60.8 °F 50.0 °F 68% 30.21 in 6.2 mi East 8.1 mph - N/A   Mostly Cloudy
3:20 AM 59.0 °F 50.0 °F 72% 30.21 in 6.2 mi East 6.9 mph - N/A   Mostly Cloudy
3:50 AM 59.0 °F 50.0 °F 72% 30.21 in 6.2 mi East 5.8 mph - N/A   Mostly Cloudy
4:20 AM 59.0 °F 50.0 °F 72% 30.21 in 6.2 mi East 5.8 mph - N/A   Mostly Cloudy
4:50 AM 59.0 °F 48.2 °F 67% 30.21 in 6.2 mi ENE 5.8 mph - N/A   Mostly Cloudy
5:20 AM 59.0 °F 50.0 °F 72% 30.21 in 6.2 mi NNE 4.6 mph - N/A   Mostly Cloudy
5:50 AM 59.0 °F 48.2 °F 67% 30.21 in 6.2 mi NNE 4.6 mph - N/A   Mostly Cloudy
6:20 AM 59.0 °F 48.2 °F 67% 30.21 in 6.2 mi NNE 3.5 mph - N/A   Mostly Cloudy
6:50 AM 59.0 °F 50.0 °F 72% 30.24 in 6.2 mi North 4.6 mph - N/A   Mostly Cloudy
7:20 AM 59.0 °F 48.2 °F 67% 30.24 in 6.2 mi North 4.6 mph - N/A   Mostly Cloudy
7:50 AM 59.0 °F 50.0 °F 72% 30.24 in 6.2 mi North 3.5 mph - N/A   Mostly Cloudy
8:20 AM 59.0 °F 50.0 °F 72% 30.24 in 6.2 mi North 4.6 mph - N/A   Mostly Cloudy
8:50 AM 59.0 °F 50.0 °F 72% 30.27 in 6.2 mi North 4.6 mph - N/A   Mostly Cloudy
9:20 AM 59.0 °F 50.0 °F 72% 30.27 in 6.2 mi NE 4.6 mph - N/A   Mostly Cloudy
9:50 AM 59.0 °F 48.2 °F 67% 30.27 in 6.2 mi ESE 5.8 mph 19.6 mph N/A   Mostly Cloudy
10:20 AM 59.0 °F 48.2 °F 67% 30.27 in 6.2 mi East 6.9 mph - N/A   Mostly Cloudy
10:50 AM 60.8 °F 48.2 °F 63% 30.30 in 6.2 mi East 5.8 mph - N/A   Mostly Cloudy
11:20 AM 59.0 °F 46.4 °F 63% 30.30 in 6.2 mi ESE 6.9 mph - N/A   Mostly Cloudy
11:50 AM 59.0 °F 46.4 °F 63% 30.30 in 6.2 mi East 5.8 mph 18.4 mph N/A   Mostly Cloudy
12:20 PM 60.8 °F 46.4 °F 59% 30.30 in 6.2 mi East 6.9 mph - N/A   Mostly Cloudy
12:50 PM 60.8 °F 46.4 °F 59% 30.30 in 6.2 mi East 5.8 mph - N/A   Mostly Cloudy
1:20 PM 60.8 °F 48.2 °F 63% 30.30 in 6.2 mi Variable 5.8 mph - N/A   Overcast
1:50 PM 60.8 °F 48.2 °F 63% 30.30 in 6.2 mi ENE 5.8 mph - N/A   Overcast
2:20 PM 60.8 °F 48.2 °F 63% 30.30 in 6.2 mi NE 5.8 mph - N/A   Overcast
2:50 PM 60.8 °F 48.2 °F 63% 30.30 in 6.2 mi NE 5.8 mph - N/A   Mostly Cloudy
3:20 PM 60.8 °F 48.2 °F 63% 30.30 in 6.2 mi ENE 5.8 mph - N/A   Mostly Cloudy
3:50 PM 60.8 °F 48.2 °F 63% 30.30 in 6.2 mi NE 5.8 mph - N/A   Mostly Cloudy
4:20 PM 60.8 °F 48.2 °F 63% 30.27 in 6.2 mi ENE 5.8 mph - N/A   Mostly Cloudy
4:50 PM 60.8 °F 48.2 °F 63% 30.27 in 6.2 mi ENE 5.8 mph - N/A   Mostly Cloudy
5:20 PM 60.8 °F 48.2 °F 63% 30.27 in 6.2 mi ENE 4.6 mph - N/A   Mostly Cloudy
5:50 PM 59.0 °F 48.2 °F 67% 30.27 in 6.2 mi ENE 4.6 mph - N/A   Mostly Cloudy
6:20 PM 59.0 °F 50.0 °F 72% 30.30 in 6.2 mi ENE 3.5 mph - N/A   Mostly Cloudy
6:50 PM 59.0 °F 50.0 °F 72% 30.30 in 6.2 mi NE 3.5 mph - N/A   Mostly Cloudy
7:50 PM 57.2 °F 50.0 °F 77% 30.30 in 6.2 mi East 2.3 mph - N/A   Mostly Cloudy
8:20 PM 59.0 °F 50.0 °F 72% 30.30 in 6.2 mi Variable 2.3 mph - N/A   Mostly Cloudy
8:50 PM 57.2 °F 51.8 °F 82% 30.30 in 6.2 mi East 1.2 mph - N/A   Mostly Cloudy
9:20 PM 57.2 °F 51.8 °F 82% 30.30 in 6.2 mi East 1.2 mph - N/A   Mostly Cloudy
9:50 PM 57.2 °F 51.8 °F 82% 30.30 in 6.2 mi Variable 1.2 mph - N/A   Mostly Cloudy
10:20 PM 57.2 °F 50.0 °F 77% 30.33 in 6.2 mi Variable 2.3 mph - N/A   Mostly Cloudy
10:50 PM 57.2 °F 48.2 °F 72% 30.33 in 6.2 mi East 3.5 mph - N/A   Mostly Cloudy
11:20 PM 57.2 °F 48.2 °F 72% 30.33 in 6.2 mi ESE 3.5 mph - N/A   Mostly Cloudy
11:50 PM 57.2 °F 48.2 °F 72% 30.33 in 6.2 mi East 4.6 mph - N/A   Mostly Cloudy